RH
56 55 62 58 67 89 92 76 76 60 64 46 39 37 38 38 37 36 31 27 28 29 30 28 28 29 92 100 98 90 95 99 99 100 96 94 97 98 98 100 99 89 91 82
70 54 54 53 59 74 81 76 75 65 60 43 42 40 44 42 36 31 28 27 29 30 32 32 29 27 30 33 98 100 99 100 100 99 98 98 96 99 97 100 100 98 100 88
89 65 66 81 55 69 75 81 72 87 63 47 54 47 41 35 32 30 27 28 28 26 33 32 28 27 30 32 38 96 99 98 98 100 100 100 98 100 99 97 100 100 99 85
92 75 92 50 40 39 47 43 58 47 44 46 40 31 29 28 31 28 29 31 30 29 31 31 29 30 30 35 38 95 98 100 100 100 100 100 99 86 98 94 97 100 100 98
93 89 65 56 48 53 55 49 44 46 40 35 34 32 30 30 36 38 37 35 35 31 32 36 35 35 40 46 58 83 98 100 100 100 100 100 100 100 99 83 75 83 85 91
83 95 87 50 41 34 35 45 37 43 42 41 40 47 46 46 47 48 49 48 46 43 46 48 45 52 60 66 77 95 100 98 99 100 99 100 100 100 100 100 100 100 99 100
81 89 90 68 38 35 55 40 37 35 39 45 48 44 46 49 48 46 48 52 53 50 51 54 58 62 61 65 68 77 89 96 98 96 86 83 86 84 89 97 100 100 100 100
79 90 88 53 35 43 36 44 40 42 43 44 48 52 52 51 52 48 46 46 48 42 45 50 54 58 60 60 61 60 61 68 76 86 93 94 85 87 90 94 97 99 100 100
80 60 61 48 45 33 31 39 45 45 46 47 54 57 57 57 55 58 50 48 51 46 40 44 44 43 42 50 55 59 59 59 61 64 67 71 79 85 87 89 89 91 88 80
99 82 73 68 55 46 42 41 46 47 50 51 59 62 65 63 60 63 59 56 54 50 52 50 52 48 46 46 46 50 56 60 62 65 66 68 72 74 79 83 85 86 81 82
97 92 78 95 79 65 61 56 57 58 58 62 63 70 70 77 66 67 69 64 63 63 64 60 56 52 52 49 46 47 52 58 64 67 67 66 68 72 76 78 80 80 81 83
97 98 86 99 100 84 81 91 80 71 76 78 72 90 97 100 99 99 96 88 74 70 70 74 70 68 65 61 57 58 60 65 68 69 70 70 70 71 73 75 75 75 74 73
97 99 99 100 100 100 98 100 100 99 99 98 98 98 99 97 98 99 99 98 98 98 98 98 96 92 87 80 70 68 69 71 72 72 72 73 73 74 74 75 75 75 75 74
98 95 96 98 98 98 98 98 98 98 97 97 97 99 97 97 98 96 96 97 98 98 97 91 83 79 75 71 70 70 74 80 82 78 77 78 79 79 79 79 81 82 91 93
97 97 98 98 96 97 97 97 96 97 98 97 97 96 96 96 96 97 97 97 96 95 92 86 81 84 86 85 79 75 73 74 76 80 93 98 98 97 91 89 87 90 94 97
97 96 95 95 96 96 96 97 95 97 96 94 80 68 65 64 67 67 65 60 56 64 64 60 58 58 55 60 71 78 85 89 88 88 88 88 91 96 97 97 97 97 98 98
89 93 84 85 85 76 71 73 72 68 65 63 62 59 56 57 57 62 65 62 58 56 56 53 54 52 50 49 48 48 51 63 74 81 88 92 94 93 94 95 95 96 97 96
83 80 71 64 62 55 56 53 50 48 51 49 45 44 45 48 55 61 66 66 60 54 51 55 53 49 45 42 42 45 49 50 50 50 54 58 69 81 88 90 91 96 99 100
66 66 62 58 58 54 52 54 53 49 44 42 34 37 40 40 40 41 41 37 29 29 34 36 35 32 30 27 27 28 31 35 42 49 52 52 52 56 62 67 78 88 89 90
66 66 65 64 60 58 58 58 54 48 49 47 47 43 43 46 47 46 49 51 51 52 51 46 45 43 42 42 36 34 33 30 28 28 31 39 46 51 55 57 59 64 68 78
70 68 64 61 62 59 59 58 56 56 59 58 58 60 61 61 58 56 50 48 52 53 54 53 53 53 55 88 60 56 54 52 49 46 42 41 38 38 40 46 52 57 58 60
67 65 65 65 64 64 64 62 58 58 57 56 59 60 59 58 58 58 64 65 58 58 56 56 56 57 79 100 76 67 62 62 62 62 60 59 57 53 50 50 49 48 53 66
67 68 67 65 66 66 67 64 64 65 66 66 68 68 68 68 70 70 61 63 64 66 71 63 62 71 100 93 68 62 59 59 59 60 62 64 66 66 65 63 60 59 61 62
50 56 69 75 78 77 74 75 76 75 73 71 71 74 74 70 64 77 77 72 68 67 66 67 70 86 100 70 70 70 71 71 71 72 73 75 75 76 76 76 74 72 72 72
54 58 64 69 74 84 96 98 94 93 90 84 79 73 67 75 88 81 81 75 68 64 63 64 67 68 68 70 74 76 79 80 80 84 87 87 88 87 85 85 85 85 86 87
63 71 87 93 90 96 100 100 99 98 99 95 87 77 68 74 89 93 91 83 75 70 71 72 74 76 76 78 79 79 81 83 85 86 90 91 90 90 90 92 91 89 89 88
74 88 99 80 82 87 94 99 99 96 98 96 91 89 95 100 98 98 100 95 81 76 78 80 82 82 82 81 81 83 84 84 85 87 86 86 87 88 86 85 85 85 84 84
Wind_Speed
15 10 5 6 6 13 18 23 10 9 15 21 17 14 19 15 34 32 23 23 22 20 18 15 10 9 17 24 26 30 31 33 37 43 49 52 53 49 47 48 46 46 43 39
25 21 14 19 12 14 21 21 20 12 15 13 7 12 21 23 24 26 31 24 21 22 21 15 14 12 12 16 20 24 28 31 32 35 34 41 51 52 58 50 47 48 44 37
18 10 7 8 26 11 6 6 16 16 14 17 8 9 12 24 24 25 25 23 16 16 17 14 12 11 10 11 14 17 20 25 28 29 29 33 26 36 30 39 41 39 38 46
13 5 20 13 10 20 20 20 18 18 5 9 14 13 20 27 21 26 22 15 11 8 7 7 9 10 9 8 12 13 16 16 19 24 24 24 26 23 28 30 37 37 38 45
10 11 8 7 4 9 7 10 14 14 13 15 9 4 18 10 9 10 8 7 7 7 8 8 8 8 6 4 5 9 11 13 13 16 19 20 24 25 29 28 20 20 23 26
11 9 9 7 17 9 6 12 9 12 12 7 7 2 3 3 4 5 3 2 1 1 0 2 2 1 3 5 6 6 7 7 7 8 9 11 13 15 18 18 26 29 33 36
17 17 6 6 5 16 7 7 8 17 13 12 6 4 8 10 11 11 11 9 7 9 8 7 7 8 8 8 7 6 6 7 8 8 8 8 8 9 9 12 17 22 26 28
14 14 21 7 2 9 7 4 9 9 11 12 16 17 16 16 16 15 15 14 11 13 14 13 11 9 9 8 8 7 5 5 6 6 7 8 10 10 11 13 14 15 18 19
7 10 2 7 3 8 10 14 12 16 19 25 25 23 20 20 18 17 17 16 13 14 13 13 13 12 9 10 7 4 3 2 3 3 5 8 10 11 13 13 14 15 16 19
3 3 4 6 10 6 10 16 17 21 24 25 27 23 22 20 20 17 18 17 14 13 16 16 15 13 13 11 9 6 2 0 1 1 1 3 5 7 10 11 13 16 19 20
3 2 10 21 18 22 24 23 26 25 24 25 25 23 23 21 24 20 19 17 16 16 16 17 14 14 13 13 12 10 7 3 1 1 1 2 2 4 5 7 9 11 13 15
3 13 9 12 19 24 29 24 25 27 25 23 23 20 16 17 14 12 14 14 14 15 15 16 14 12 11 11 10 10 7 4 2 1 1 1 1 2 4 6 8 9 11 12
2 22 30 30 26 24 28 25 24 25 24 24 22 21 23 22 19 18 18 18 18 17 16 14 13 11 9 7 5 6 8 8 6 5 3 2 1 1 1 2 4 6 7 8
36 30 40 36 22 37 39 37 36 34 31 29 27 28 28 27 25 25 24 21 20 20 21 20 19 20 17 14 11 9 7 6 5 5 4 2 1 1 2 2 3 5 7 10
45 45 41 44 45 41 39 39 41 38 35 34 33 33 31 30 28 26 24 23 23 25 25 24 24 23 19 16 15 14 12 12 10 8 7 6 5 5 4 4 5 7 9 11
43 48 49 48 44 43 43 41 40 36 35 33 32 30 29 28 27 26 25 23 24 26 24 23 24 23 22 21 19 17 16 15 12 11 10 9 8 5 4 3 3 4 6 8
38 38 35 35 34 35 36 34 32 30 28 28 26 23 23 23 22 21 20 19 19 19 19 20 20 19 18 19 18 19 19 18 15 12 11 10 9 7 6 4 3 2 3 5
32 31 32 32 31 32 32 30 28 26 25 22 20 20 20 20 19 16 14 12 11 12 14 15 15 15 15 15 15 14 14 14 13 13 12 13 12 10 8 7 6 4 3 2
28 29 29 29 28 28 27 26 24 22 21 20 19 20 18 16 15 13 11 11 12 13 14 14 14 14 14 13 13 13 13 13 12 12 12 12 10 9 9 9 8 7 7 7
28 27 26 26 25 26 25 23 20 20 19 18 16 15 15 15 14 13 13 14 15 16 16 16 16 16 15 14 14 14 14 14 14 14 14 14 14 14 14 13 13 13 12 10
26 26 26 26 24 23 23 22 21 20 19 18 17 17 16 15 15 15 15 14 15 16 16 17 17 16 15 15 17 17 17 16 16 17 17 17 17 17 17 17 17 17 16 16
25 24 23 22 21 20 20 19 18 17 18 18 17 17 17 17 17 16 15 17 18 18 19 19 18 18 17 16 20 20 19 19 18 18 18 18 18 19 20 20 20 19 19 18
21 21 21 21 21 20 18 18 18 18 18 18 17 17 18 18 18 19 21 19 20 20 20 20 19 19 18 20 21 21 20 20 19 19 19 19 20 20 20 20 20 20 20 21
24 22 20 20 19 19 19 18 17 17 17 17 17 17 20 22 20 17 19 20 20 21 22 22 22 21 19 22 21 21 21 20 20 20 19 19 19 20 20 21 21 20 20 21
24 23 21 21 21 19 18 18 18 17 18 17 17 19 20 18 20 21 21 21 21 23 24 22 22 22 22 22 22 22 21 20 20 19 19 18 18 18 18 18 19 19 19 19
24 22 20 20 18 18 18 17 18 17 20 21 23 24 25 21 18 19 20 20 22 23 23 22 21 21 21 21 22 21 21 20 20 19 19 19 19 19 19 18 18 18 19 20
20 18 20 20 20 19 18 19 19 18 18 21 26 27 23 19 19 18 18 20 23 24 22 20 20 20 21 22 22 22 22 22 21 21 21 21 20 21 21 22 22 22 23 23
Wind_Direction
256 253 223 245 188 190 209 226 213 219 221 254 246 269 281 296 303 307 304 309 299 281 286 278 277 280 246 241 240 235 237 242 244 244 240 238 242 245 247 241 234 232 230 232
264 262 240 252 241 199 211 224 236 261 258 255 233 264 283 285 290 294 299 306 300 281 259 281 275 278 266 257 244 242 241 240 242 241 242 244 246 249 244 237 240 235 230 231
260 251 210 237 233 196 192 193 205 230 230 261 267 242 259 273 280 282 294 298 294 299 265 262 267 273 276 265 255 245 246 246 247 246 245 242 243 247 244 240 238 243 236 234
285 169 235 248 178 213 217 225 214 238 215 228 247 276 285 283 278 284 286 278 271 277 265 255 264 278 282 267 252 234 243 243 246 247 248 245 233 233 248 257 250 236 225 229
249 251 267 287 198 148 163 238 215 217 237 244 267 318 287 306 279 278 275 260 259 258 259 261 265 272 271 247 241 221 229 239 243 239 239 239 238 231 223 220 243 243 246 242
234 253 235 237 215 191 117 244 202 184 213 210 141 177 257 85 88 74 71 97 135 112 311 226 260 221 151 144 156 169 181 201 214 220 225 229 232 237 243 235 228 227 222 226
221 240 271 245 278 147 171 224 172 183 178 170 171 174 136 130 113 96 88 83 93 102 96 99 97 99 107 111 125 143 169 179 183 188 205 226 240 250 254 248 245 241 234 230
212 230 237 202 112 183 213 100 143 153 169 144 132 130 128 120 110 107 99 90 80 92 86 81 86 93 96 92 89 98 125 170 188 198 208 223 230 238 243 244 245 249 244 237
209 222 139 160 159 246 176 165 162 151 144 138 132 126 123 114 108 97 95 86 75 76 82 75 72 73 74 64 60 68 84 112 131 176 215 227 230 230 240 243 240 239 236 230
233 24 49 61 86 140 157 146 142 142 138 135 123 121 114 110 103 89 85 84 80 73 74 70 58 54 51 42 40 40 36 242 226 207 234 251 241 235 233 237 238 235 230 230
92 46 85 50 78 108 105 114 117 119 121 120 121 113 110 99 92 87 81 78 75 73 67 64 55 45 38 27 10 1 354 338 257 222 251 274 257 244 234 233 236 240 243 242
348 321 79 86 85 104 101 97 107 113 109 110 116 109 103 86 85 90 93 91 81 74 68 62 57 54 46 35 23 14 9 8 24 75 173 201 216 237 248 241 238 237 237 240
320 71 92 88 89 95 93 94 96 95 95 93 90 98 92 87 86 87 80 75 71 70 66 58 52 50 46 44 47 49 56 58 61 68 70 74 50 339 285 263 250 246 236 229
41 72 63 69 69 83 92 91 91 88 86 86 87 83 83 82 78 74 72 73 76 76 73 69 65 61 55 52 52 60 62 63 57 56 62 61 38 318 278 261 247 249 253 248
39 55 64 72 74 71 79 84 80 74 77 80 81 82 82 81 81 80 80 78 76 73 69 66 63 59 54 54 57 60 63 58 46 38 24 5 342 320 297 265 239 237 251 265
45 52 59 59 62 66 74 76 78 77 79 77 77 77 80 82 81 79 76 73 70 65 62 59 57 52 51 51 54 56 57 57 53 47 42 40 40 34 22 7 337 305 288 283
40 35 44 52 55 62 68 74 76 76 76 74 75 79 79 79 78 70 64 60 57 56 54 50 46 40 39 40 39 41 43 44 42 39 35 34 34 34 34 34 31 9 318 290
52 55 57 58 59 61 61 63 64 64 63 63 64 64 62 58 57 55 48 39 37 35 35 32 27 20 15 15 17 18 20 21 19 18 20 24 25 20 11 358 337 315 301 296
42 45 47 49 50 53 54 51 50 51 49 46 44 46 47 48 43 35 25 11 13 13 14 9 3 356 353 351 349 347 346 344 344 344 341 340 338 337 337 342 347 343 328 311
38 40 40 39 38 39 40 39 35 34 33 29 27 26 26 25 19 13 7 2 1 355 348 343 343 341 340 332 327 326 323 320 317 314 314 313 313 313 312 310 307 304 298 300
31 31 31 31 30 30 30 26 23 24 21 17 15 15 12 6 1 356 349 351 349 343 339 336 336 335 334 334 323 321 319 316 311 307 303 300 298 297 296 297 297 296 293 288
18 18 18 18 19 20 18 15 15 14 10 8 5 1 357 354 351 350 349 342 338 335 331 333 332 330 331 322 316 318 317 314 311 307 303 300 297 295 292 290 289 288 287 286
359 358 358 357 357 357 356 354 356 356 357 356 354 350 347 344 342 339 337 339 335 333 328 329 327 324 328 310 315 315 314 312 308 306 303 302 300 299 297 295 292 288 283 278
341 340 337 336 332 331 330 335 337 337 336 338 338 338 335 331 328 331 328 328 328 328 326 325 323 321 319 315 315 314 313 310 308 306 303 298 296 296 295 294 294 292 289 288
340 338 337 335 333 330 322 321 320 322 321 324 327 331 330 325 318 321 323 324 324 324 322 322 317 313 312 312 313 314 313 310 308 307 303 303 302 299 296 295 294 293 291 289
342 345 345 343 343 342 337 331 328 323 319 320 323 328 328 324 318 316 315 320 324 323 319 318 317 317 315 313 312 313 311 309 307 303 300 298 298 299 299 296 296 294 292 292
347 350 348 349 354 347 342 337 330 329 322 319 324 328 325 321 317 313 311 314 320 321 320 318 317 318 318 315 313 309 306 303 301 300 299 299 296 295 295 294 292 293 294 294